User: anonymous   Login
Location: Newark
(43.0000°N, 1.6781°W)
Time: 01:32:21
(UTC+00:00)
Language:

AO-7 - Orbit

View from above orbital plane
View from above orbital plane
View from above satellite
View from above satellite

Ground track
Ground track

The orbit data is extracted from the following two-line orbital elements,

1 07530U 74089B   24111.62498830 -.00000016  00000-0  19219-3 0  9995
2 07530 101.9777 105.7366 0012120 192.5718 285.7349 12.53674412261828
Epoch (UTC): 20 April 2024 14:59:58
Eccentricity: 0.0012120
inclination: 101.9777°
perigee height: 1439 km
apogee height: 1458 km
right ascension of ascending node: 105.7366°
argument of perigee: 192.5718°
revolutions per day: 12.53674412
mean anomaly at epoch: 285.7349°
orbit number at epoch: 26182

The dashed part of the orbit path shows where the satellite is in the earth's shadow,  

DLR